This demonstration page uses our WeatherBlox Daily Observations layout. Learn more.

36.17497, -115.13722

Hourly Observations for April 20, 2018

Temp ( °F °C ) Dew Point ( °F °C ) Humidity (%) Winds ( mph kmh ) Pressure ( in mb ) Visibility ( mi km ) Precip ( " mm )
12:53 am 00:53 Clear 55 12.8 36 2.2 49 49 NNW 21 33 29.88 1012 10 16.09344 0 0
1:53 am 01:53 Clear 54 12.2 36 2.2 51 51 NNW 16 26 29.88 1012 10 16.09344 0 0
2:53 am 02:53 Mostly Cloudy 56 13.3 35 1.7 46 46 N 21 33 29.91 1013 10 16.09344 0 0
3:53 am 03:53 Clear 54 12.2 35 1.7 49 49 NNW 17 28 29.91 1013 10 16.09344 0 0
4:53 am 04:53 Clear 54 12.2 35 1.7 49 49 NNW 21 33 29.91 1013 10 16.09344 0 0
5:53 am 05:53 Clear 55 12.8 34 1.1 45 45 NNW 20 31 29.91 1013 10 16.09344 0 0
6:53 am 06:53 Sunny 57 13.9 33 0.6 41 41 NW 28 44 29.94 1014 10 16.09344 0 0
7:53 am 07:53 Sunny 60 15.6 33 0.6 36 36 NNW 18 30 29.94 1014 10 16.09344 0 0
8:53 am 08:53 Sunny 63 17.2 32 0 31 31 NNW 28 44 29.94 1014 10 16.09344 0 0
9:53 am 09:53 Sunny 67 19.4 30 -1.1 25 25 NNW 28 44 29.94 1014 10 16.09344 0 0
10:53 am 10:53 Sunny 69 20.6 29 -1.7 22 22 NNW 26 43 29.97 1015 10 16.09344 0 0
11:53 am 11:53 Sunny 73 22.8 28 -2.2 19 19 NNW 22 35 29.94 1014 10 16.09344 0 0
12:53 pm 12:53 Sunny 75 23.9 27 -2.8 17 17 NNW 25 41 29.97 1015 10 16.09344 0 0
1:53 pm 13:53 Sunny 79 26.1 25 -3.9 14 14 NW 21 33 29.94 1014 10 16.09344 0 0
2:53 pm 14:53 Mostly Cloudy 81 27.2 22 -5.6 11 11 N 23 37 29.91 1013 10 16.09344 0 0
3:53 pm 15:53 Mostly Sunny 82 27.8 21 -6.1 10 10 NNW 18 30 29.91 1013 10 16.09344 0 0
4:53 pm 16:53 Sunny 82 27.8 21 -6.1 10 10 NW 20 31 29.91 1013 10 16.09344 0 0
5:53 pm 17:53 Sunny 80 26.7 23 -5 12 12 ENE 12 19 29.94 1014 10 16.09344 0 0
6:53 pm 18:53 Sunny 77 25 26 -3.3 15 15 SE 10 17 29.94 1014 10 16.09344 0 0
7:53 pm 19:53 Clear 74 23.3 27 -2.8 17 17 SE 7 11 29.97 1015 10 16.09344 0 0
8:53 pm 20:53 Clear 72 22.2 28 -2.2 19 19 E 5 7 30 1016 10 16.09344 0 0
9:53 pm 21:53 Clear 69 20.6 30 -1.1 23 23 SW 3 6 30 1016 10 16.09344 0 0
10:53 pm 22:53 Clear 65 18.3 29 -1.7 26 26 E 5 7 30.03 1017 10 16.09344 0 0
11:53 pm 23:53 Clear 64 17.8 31 -0.6 29 29 NNW 5 7 30.06 1018 10 16.09344 0 0

Powered by AerisWeather